EW1196 Weather Reports


time (UTC)temp
C
wind
direction
speed
KPH
gust
KPH
rain 1hr
cm
rain 24hr
cm
rain mn
cm
humidity
%
barometer
mb
20260509043505 12 332 1.6 4.8 0.05 0.15 0.03 85 1008.4
20260509043005 12 332 1.6 4.8 0.05 0.15 0.03 85 1008.5
20260509042504 12 332 1.6 4.8 0.03 0.13 0.00 85 1008.6
20260509042004 12 332 1.6 3.2 0.03 0.13 0.00 85 1008.6
20260509041504 12 332 1.6 3.2 0.03 0.13 0.00 85 1008.6
20260509041004 12 332 1.6 3.2 0.05 0.13 0.00 85 1008.7
20260509040505 12 332 1.6 3.2 0.05 0.13 0.00 85 1008.7
20260509040005 12 332 0.0 1.6 0.08 0.13 0.00 85 1008.8
20260509035504 12 332 0.0 1.6 0.08 0.13 0.13 85 1008.9
20260509035004 12 332 0.0 1.6 0.10 0.13 0.13 85 1009.0
20260509034504 12 332 0.0 1.6 0.13 0.13 0.13 85 1009.0
20260509034005 12 332 0.0 1.6 0.13 0.13 0.13 85 1009.0
20260509033504 12 332 0.0 1.6 0.10 0.10 0.10 85 1009.0
20260509033004 12 332 0.0 3.2 0.10 0.10 0.10 85 1009.0
20260509032004 12 332 1.6 4.8 0.10 0.10 0.10 85 1009.0
20260509030505 12 332 1.6 1.6 0.08 0.08 0.08 85 1009.0
20260509030004 12 332 0.0 1.6 0.05 0.05 0.05 85 1009.1
20260509025505 12 332 1.6 3.2 0.05 0.05 0.05 85 1009.2
20260509025004 12 332 0.0 3.2 0.03 0.03 0.03 85 1009.2
20260509024504 12 332 0.0 1.6 0.00 0.00 0.00 85 1009.2
20260509023504 12 332 0.0 4.8 0.00 0.00 0.00 84 1009.3
20260509022004 12 329 1.6 4.8 0.00 0.00 0.00 84 1009.5
20260509021504 12 330 3.2 4.8 0.00 0.00 0.00 84 1009.5
20260509021004 12 321 1.6 4.8 0.00 0.00 0.00 83 1009.4
20260509020504 12 334 1.6 4.8 0.00 0.00 0.00 83 1009.4
20260509020004 12 326 3.2 4.8 0.00 0.00 0.00 83 1009.4
20260509015004 13 0 3.2 12.9 0.00 0.00 0.00 82 1009.4
20260509014505 13 316 4.8 11.3 0.00 0.00 0.00 82 1009.3
20260509014005 13 345 4.8 8.0 0.00 0.00 0.00 81 1009.3
20260509013504 13 304 3.2 12.9 0.00 0.00 0.00 81 1009.2
20260509013004 13 343 3.2 8.0 0.00 0.00 0.00 81 1009.1
20260509012504 13 355 1.6 3.2 0.00 0.00 0.00 80 1008.9
20260509011504 13 355 1.6 4.8 0.00 0.00 0.00 80 1008.4
20260509011004 13 328 3.2 11.3 0.00 0.00 0.00 79 1008.4
20260509010504 13 327 6.4 12.9 0.00 0.00 0.00 79 1008.4
20260509010005 13 354 3.2 8.0 0.00 0.00 0.00 79 1008.4
20260509005504 14 338 1.6 3.2 0.00 0.00 0.00 79 1008.4
20260509004504 15 338 0.0 3.2 0.00 0.00 0.00 77 1008.3
20260509004004 15 338 1.6 3.2 0.00 0.00 0.00 76 1008.2
20260509003504 15 338 0.0 1.6 0.00 0.00 0.00 75 1008.4
20260509003004 15 338 0.0 1.6 0.00 0.00 0.00 75 1008.5
20260509002504 15 338 0.0 1.6 0.00 0.00 0.00 74 1008.6
20260509002004 15 338 1.6 4.8 0.00 0.00 0.00 74 1008.6
20260509001504 15 320 3.2 8.0 0.00 0.00 0.00 74 1008.4
20260509001004 15 338 4.8 12.9 0.00 0.00 0.00 74 1008.3
20260509000504 15 352 9.7 14.5 0.00 0.00 0.00 74 1008.3
20260509000004 15 231 0.0 1.6 0.00 0.00 0.00 76 1008.3
20260508235504 15 229 0.0 0.0 0.00 0.00 0.00 76 1008.3
20260508235005 15 229 0.0 0.0 0.00 0.00 0.00 76 1008.4
20260508234005 15 229 0.0 0.0 0.00 0.00 0.00 77 1008.3
20260508233504 16 229 0.0 0.0 0.00 0.00 0.00 75 1008.2
20260508233004 16 229 0.0 0.0 0.00 0.00 0.00 75 1008.1
20260508232004 16 229 0.0 0.0 0.00 0.00 0.00 77 1008.0
20260508231004 16 229 0.0 0.0 0.00 0.00 0.00 74 1008.0
20260508230004 16 229 0.0 0.0 0.00 0.00 0.00 76 1008.0
20260508225504 16 229 0.0 0.0 0.00 0.00 0.00 75 1008.1
20260508225004 16 229 0.0 0.0 0.00 0.00 0.00 72 1008.1
20260508224505 16 229 0.0 0.0 0.00 0.00 0.00 71 1008.1
20260508224004 16 229 0.0 0.0 0.00 0.00 0.00 71 1008.1
20260508223004 17 229 1.6 1.6 0.00 0.00 0.00 66 1008.0
20260508222004 17 229 0.0 3.2 0.00 0.00 0.00 63 1007.9
20260508221504 17 229 0.0 1.6 0.00 0.00 0.00 61 1008.0
20260508220505 18 229 0.0 1.6 0.00 0.00 0.00 57 1008.1
20260508220004 18 229 1.6 3.2 0.00 0.00 0.00 56 1008.0
20260508214504 18 231 4.8 12.9 0.00 0.00 0.00 52 1007.9
20260508214004 18 188 3.2 4.8 0.00 0.00 0.00 55 1008.0
20260508213504 18 206 1.6 4.8 0.00 0.00 0.00 54 1008.0
20260508213005 18 206 1.6 3.2 0.00 0.00 0.00 52 1008.0
20260508212504 18 206 1.6 4.8 0.00 0.00 0.00 53 1008.0
20260508212004 18 206 3.2 11.3 0.00 0.00 0.00 51 1007.9
20260508211504 18 204 4.8 11.3 0.00 0.00 0.00 52 1008.0
20260508211004 18 229 3.2 9.7 0.00 0.00 0.00 52 1008.2
20260508210504 18 158 3.2 9.7 0.00 0.00 0.00 52 1008.1
20260508210004 18 207 3.2 8.0 0.00 0.00 0.00 52 1008.1
20260508205504 18 169 1.6 11.3 0.00 0.00 0.00 53 1008.2
20260508205005 18 198 8.0 14.5 0.00 0.00 0.00 50 1008.3
20260508204504 18 223 3.2 8.0 0.00 0.00 0.00 51 1008.4
20260508204005 18 223 4.8 9.7 0.00 0.00 0.00 51 1008.5
20260508203004 18 190 4.8 12.9 0.00 0.00 0.00 51 1008.6
20260508202504 18 214 3.2 11.3 0.00 0.00 0.00 52 1008.8
20260508202004 18 272 4.8 14.5 0.00 0.00 0.00 52 1009.0
20260508201504 18 178 4.8 14.5 0.00 0.00 0.00 51 1009.1
20260508200504 18 211 8.0 12.9 0.00 0.00 0.00 51 1009.2
20260508200004 18 217 6.4 16.1 0.00 0.00 0.00 51 1009.2
20260508195504 18 215 8.0 14.5 0.00 0.00 0.00 53 1009.4
20260508195004 18 195 3.2 11.3 0.00 0.00 0.00 52 1009.4
20260508194504 18 219 4.8 14.5 0.00 0.00 0.00 50 1009.4
20260508194004 18 221 8.0 19.3 0.00 0.00 0.00 50 1009.5
20260508193504 18 255 6.4 14.5 0.00 0.00 0.00 50 1009.5
20260508193004 18 239 4.8 20.9 0.00 0.00 0.00 51 1009.6
20260508192504 18 232 4.8 11.3 0.00 0.00 0.00 49 1009.6
20260508192004 18 199 6.4 19.3 0.00 0.00 0.00 50 1009.8
20260508191504 18 240 4.8 14.5 0.00 0.00 0.00 50 1009.8
20260508191004 18 243 9.7 16.1 0.00 0.00 0.00 46 1009.7
20260508190004 18 220 4.8 16.1 0.00 0.00 0.00 48 1009.7
20260508185504 18 225 9.7 20.9 0.00 0.00 0.00 48 1009.8
20260508185004 18 224 11.3 24.1 0.00 0.00 0.00 50 1009.9
20260508184504 18 207 4.8 20.9 0.00 0.00 0.00 50 1009.9
20260508184004 18 210 8.0 20.9 0.00 0.00 0.00 50 1009.9
20260508183504 18 238 4.8 19.3 0.00 0.00 0.00 50 1009.9
20260508183004 18 183 9.7 24.1 0.00 0.00 0.00 50 1009.9
20260508182504 18 155 4.8 12.9 0.00 0.00 0.00 51 1010.0
20260508181504 19 258 8.0 16.1 0.00 0.00 0.00 52 1010.3
20260508181004 18 162 3.2 9.7 0.00 0.00 0.00 54 1010.4
20260508180504 18 220 8.0 14.5 0.00 0.00 0.00 53 1010.4
20260508180004 18 154 6.4 19.3 0.00 0.00 0.00 54 1010.6
20260508175504 18 215 4.8 16.1 0.00 0.00 0.00 56 1010.7
20260508175004 18 199 8.0 19.3 0.00 0.00 0.00 54 1010.8
20260508174505 17 189 6.4 19.3 0.00 0.00 0.00 53 1011.0
20260508174004 17 198 6.4 16.1 0.00 0.00 0.00 55 1011.2
20260508173504 17 223 9.7 24.1 0.00 0.00 0.00 53 1011.3
20260508173004 17 161 8.0 16.1 0.00 0.00 0.00 53 1011.4
20260508172505 18 228 8.0 19.3 0.00 0.00 0.00 54 1011.4
20260508172004 17 228 4.8 9.7 0.00 0.00 0.00 55 1011.5
20260508171504 17 217 6.4 19.3 0.00 0.00 0.00 54 1011.5
20260508171004 17 188 8.0 19.3 0.00 0.00 0.00 55 1011.6
20260508170504 17 208 8.0 16.1 0.00 0.00 0.00 55 1011.7
20260508170004 17 218 8.0 19.3 0.00 0.00 0.00 55 1011.8
20260508165504 17 219 6.4 19.3 0.00 0.00 0.00 55 1011.9
20260508165005 17 228 9.7 19.3 0.00 0.00 0.00 55 1011.9
20260508164504 17 222 8.0 20.9 0.00 0.00 0.00 56 1012.1
20260508163504 17 235 11.3 22.5 0.00 0.00 0.00 53 1012.2
20260508163004 17 241 8.0 19.3 0.00 0.00 0.00 54 1012.2
20260508162504 17 184 8.0 22.5 0.00 0.00 0.00 53 1012.3
20260508162004 17 208 11.3 27.4 0.00 0.00 0.00 53 1012.3
20260508161504 17 224 9.7 20.9 0.00 0.00 0.00 54 1012.4
20260508161004 17 232 8.0 19.3 0.00 0.00 0.00 57 1012.5
20260508160504 17 198 11.3 20.9 0.00 0.00 0.00 54 1012.5
20260508160004 17 228 11.3 25.7 0.00 0.00 0.00 55 1012.5
20260508155504 17 212 8.0 22.5 0.00 0.00 0.00 55 1012.6
20260508154504 17 193 8.0 14.5 0.00 0.00 0.00 55 1012.6
20260508153504 17 218 8.0 16.1 0.00 0.00 0.00 56 1012.6
20260508153004 16 198 8.0 16.1 0.00 0.00 0.00 55 1012.5
20260508152004 16 192 9.7 19.3 0.00 0.00 0.00 56 1012.7
20260508151504 16 222 14.5 24.1 0.00 0.00 0.00 56 1012.8
20260508151004 16 235 14.5 25.7 0.00 0.00 0.00 55 1012.8
20260508150504 16 219 14.5 33.8 0.00 0.00 0.00 55 1012.9
20260508150004 16 227 9.7 19.3 0.00 0.00 0.00 56 1012.9
20260508145004 16 182 8.0 19.3 0.00 0.00 0.00 56 1013.0
20260508144504 15 205 4.8 19.3 0.00 0.00 0.00 58 1013.0
20260508143504 15 231 11.3 29.0 0.00 0.00 0.00 56 1013.2
20260508143004 15 223 12.9 24.1 0.00 0.00 0.00 54 1013.1
20260508142504 15 220 16.1 27.4 0.00 0.00 0.00 55 1013.1
20260508142005 15 231 6.4 19.3 0.00 0.00 0.00 56 1013.1
20260508141004 14 239 11.3 22.5 0.00 0.00 0.00 55 1013.3
20260508140504 14 220 11.3 20.9 0.00 0.00 0.00 55 1013.5
20260508140004 14 235 9.7 22.5 0.00 0.00 0.00 55 1013.4
20260508135504 14 231 8.0 19.3 0.00 0.00 0.00 57 1013.4
20260508135004 14 197 11.3 22.5 0.00 0.00 0.00 56 1013.4
20260508134504 14 227 9.7 27.4 0.00 0.00 0.00 57 1013.5
20260508133504 13 212 11.3 19.3 0.00 0.00 0.00 57 1013.4
20260508133004 13 191 4.8 14.5 0.00 0.00 0.00 59 1013.4
20260508132504 13 249 8.0 20.9 0.00 0.00 0.00 60 1013.4
20260508132004 13 225 8.0 19.3 0.00 0.00 0.00 60 1013.4
20260508131004 12 195 9.7 16.1 0.00 0.00 0.00 60 1013.4
20260508130504 12 185 3.2 12.9 0.00 0.00 0.00 62 1013.5
20260508130005 12 192 8.0 19.3 0.00 0.00 0.00 60 1013.5
20260508125504 12 216 9.7 16.1 0.00 0.00 0.00 61 1013.5
20260508125004 12 227 4.8 14.5 0.00 0.00 0.00 61 1013.5
20260508124504 12 208 9.7 19.3 0.00 0.00 0.00 60 1013.5
20260508124004 11 216 8.0 19.3 0.00 0.00 0.00 61 1013.4
20260508123504 11 233 6.4 16.1 0.00 0.00 0.00 62 1013.4
20260508123004 11 210 6.4 14.5 0.00 0.00 0.00 62 1013.3
20260508121504 11 227 8.0 19.3 0.00 0.00 0.00 62 1013.3
20260508121004 11 221 8.0 16.1 0.00 0.00 0.00 63 1013.3
20260508120504 10 218 8.0 14.5 0.00 0.00 0.00 63 1013.2
20260508120004 10 224 4.8 12.9 0.00 0.00 0.00 63 1013.2
20260508115505 10 200 3.2 19.3 0.00 0.00 0.00 63 1013.2
20260508115004 10 240 4.8 11.3 0.00 0.00 0.00 64 1013.2
20260508114504 10 188 3.2 16.1 0.00 0.00 0.00 65 1013.2
20260508114004 10 217 4.8 19.3 0.00 0.00 0.00 65 1013.2
20260508113504 10 205 4.8 11.3 0.00 0.00 0.00 65 1013.1
20260508113005 9 226 3.2 11.3 0.00 0.00 0.00 65 1013.1
20260508112505 9 222 3.2 12.9 0.00 0.00 0.00 65 1013.1
20260508111505 9 196 3.2 8.0 0.00 0.00 0.00 65 1013.1
20260508111004 9 194 3.2 8.0 0.00 0.00 0.00 65 1013.0
20260508110505 9 197 3.2 8.0 0.00 0.00 0.00 65 1013.0
20260508110005 10 210 3.2 9.7 0.00 0.00 0.00 64 1013.0
20260508105504 10 197 3.2 9.7 0.00 0.00 0.00 66 1013.0
20260508105004 10 206 3.2 4.8 0.00 0.00 0.00 65 1012.9
20260508104504 10 209 3.2 8.0 0.00 0.00 0.00 65 1012.8
20260508103504 10 198 1.6 8.0 0.00 0.00 0.00 64 1012.9
20260508103004 10 230 3.2 9.7 0.00 0.00 0.00 64 1012.9
20260508102503 10 206 3.2 8.0 0.00 0.00 0.00 64 1012.8
20260508102004 10 188 3.2 11.3 0.00 0.00 0.00 65 1012.8
20260508101005 10 195 4.8 14.5 0.00 0.00 0.00 65 1013.0
20260508100504 10 203 3.2 11.3 0.00 0.00 0.00 66 1013.0
20260508095504 10 243 4.8 12.9 0.00 0.00 0.00 66 1012.9
20260508095004 10 219 4.8 12.9 0.00 0.00 0.00 66 1012.9
20260508094504 10 191 3.2 9.7 0.00 0.00 0.00 65 1012.9
20260508094005 9 227 3.2 11.3 0.00 0.00 0.00 66 1013.0
20260508093504 9 201 4.8 14.5 0.00 0.00 0.00 65 1013.1
20260508093004 9 229 3.2 11.3 0.00 0.00 0.00 65 1013.1
20260508092504 9 232 3.2 9.7 0.00 0.00 0.00 67 1013.1
20260508092004 9 199 3.2 9.7 0.00 0.00 0.00 66 1013.1
20260508091004 9 217 1.6 8.0 0.00 0.00 0.00 67 1013.1
20260508090005 9 239 3.2 11.3 0.00 0.00 0.00 67 1013.0
20260508085504 9 237 1.6 11.3 0.00 0.00 0.00 67 1013.1
20260508085004 9 198 4.8 12.9 0.00 0.00 0.00 67 1013.0
20260508084504 9 187 3.2 9.7 0.00 0.00 0.00 68 1013.1
20260508084004 9 230 3.2 8.0 0.00 0.00 0.00 68 1013.0
20260508083504 8 183 3.2 9.7 0.00 0.00 0.00 68 1013.0
20260508083004 8 194 3.2 4.8 0.00 0.00 0.00 68 1013.0
20260508082504 8 195 3.2 9.7 0.00 0.00 0.00 68 1012.9
20260508080005 9 211 3.2 8.0 0.00 0.00 0.00 68 1013.0
20260508075504 9 210 4.8 9.7 0.00 0.00 0.00 67 1013.0
20260508075004 9 189 3.2 12.9 0.00 0.00 0.00 67 1013.0
20260508074505 9 199 4.8 14.5 0.00 0.00 0.00 67 1013.0
20260508074004 8 200 3.2 14.5 0.00 0.00 0.00 67 1013.0
20260508073504 8 208 3.2 8.0 0.00 0.00 0.00 68 1013.0
20260508072504 8 173 3.2 8.0 0.00 0.00 0.00 69 1013.0
20260508072004 8 178 1.6 4.8 0.00 0.00 0.00 68 1013.0
20260508071504 8 220 1.6 4.8 0.00 0.00 0.00 68 1013.0
20260508071005 8 213 3.2 9.7 0.00 0.00 0.00 69 1013.1
20260508070504 8 184 1.6 4.8 0.00 0.00 0.00 68 1013.2
20260508065504 8 247 3.2 9.7 0.00 0.00 0.00 67 1013.3
20260508065005 9 184 3.2 8.0 0.00 0.00 0.00 66 1013.4
20260508064504 9 212 3.2 8.0 0.00 0.00 0.00 66 1013.4
20260508064004 9 194 4.8 11.3 0.00 0.00 0.00 66 1013.4
20260508063504 8 189 3.2 4.8 0.00 0.00 0.00 67 1013.5
20260508063004 9 193 1.6 9.7 0.00 0.00 0.00 67 1013.6
20260508062005 9 173 1.6 4.8 0.00 0.00 0.00 66 1013.6
20260508061503 9 165 3.2 9.7 0.00 0.00 0.00 66 1013.5
20260508061004 9 193 3.2 9.7 0.00 0.00 0.00 67 1013.6
20260508060505 8 188 3.2 9.7 0.00 0.00 0.00 67 1013.7
20260508060004 8 187 3.2 8.0 0.00 0.00 0.00 68 1013.8
20260508055504 8 178 3.2 8.0 0.00 0.00 0.00 69 1013.9
20260508055004 8 182 1.6 4.8 0.00 0.00 0.00 69 1013.9
20260508054504 8 198 3.2 4.8 0.00 0.00 0.00 68 1013.9
20260508054004 8 185 1.6 4.8 0.00 0.00 0.00 68 1013.9
20260508053504 8 205 1.6 4.8 0.00 0.00 0.00 69 1013.9
20260508053004 8 202 3.2 9.7 0.00 0.00 0.00 68 1013.8
20260508052504 8 203 1.6 4.8 0.00 0.00 0.00 69 1013.8
20260508052004 8 202 1.6 4.8 0.00 0.00 0.00 69 1013.8
20260508051504 9 199 3.2 8.0 0.00 0.00 0.00 67 1013.8
20260508050504 9 190 1.6 4.8 0.00 0.00 0.00 66 1013.7
20260508050004 9 189 3.2 8.0 0.00 0.00 0.00 66 1013.8
20260508045504 9 180 3.2 8.0 0.00 0.00 0.00 66 1013.7
20260508045004 9 201 1.6 8.0 0.00 0.00 0.00 66 1013.7
20260508044504 9 190 3.2 8.0 0.00 0.00 0.00 65 1013.7
20260508044004 9 163 1.6 9.7 0.00 0.00 0.00 66 1013.7